Regional Weather Roundup
Issued by NWS Northern Indiana

Home | Current Version | Previous Version | Text Only | Print | Product List | Glossary Off
Versions: 1 2 3 4 5 6 7 8 9 10 11 12 13 14 15 16 17 18 19 20 21 22 23 24 25 26 27 28 29 30 31 32 33 34 35 36 37 38 39 40 41 42 43 44 45 46 47 48 49 50

000
ASUS43 KIWX 060000
RWRIWX

KIWX WEATHER ROUNDUP
NATIONAL WEATHER SERVICE NORTHERN INDIANA
800 PM EDT THU MAY 05 2016

NOTE: "FAIR" INDICATES FEW OR NO CLOUDS BELOW 12,000 FEET WITH NO
SIGNIFICANT WEATHER AND/OR OBSTRUCTIONS TO VISIBILITY.

* THESE STATIONS ARE NOT UNDER NWS QUALITY CONTROL. THEY ALSO MAY NOT
  REPORT WEATHER SUCH AS PRECIPITATION OR FOG.

INZ001>027-060100-
NORTHERN INDIANA

CITY           SKY/WX    TMP DP  RH WIND       PRES   REMARKS
GARY*          CLEAR     52  46  82 NE7       29.98F
SOUTH BEND     CLEAR     52  41  66 NW16      29.96R
6HR MIN TEMP:  52; 6HR MAX TEMP:  57;

ELKHART*       CLEAR     57  46  67 NW9       29.94R
GOSHEN         CLEAR     57  43  59 NW12      29.92R
6HR MIN TEMP:  57; 6HR MAX TEMP:  66;

ANGOLA*          N/A     63  52  67 N9        29.88S
FORT WAYNE     MOCLDY    62  42  47 N9        29.89R
6HR MIN TEMP:  60; 6HR MAX TEMP:  67; 6HR PCP: TRACE;

PERU/GRISSOM   CLEAR     59  45  58 NW12      29.91R
6HR MIN TEMP:  59; 6HR MAX TEMP:  65;


$$
INZ028>050-060100-
CENTRAL INDIANA

CITY           SKY/WX    TMP DP  RH WIND       PRES   REMARKS
LAFAYETTE      CLEAR     59  43  55 N10       29.94R
6HR MIN TEMP:  56; 6HR MAX TEMP:  64;

KOKOMO*        CLEAR     61  45  55 N10       29.91R
6HR MIN TEMP:  61; 6HR MAX TEMP:  64;

MUNCIE*        CLOUDY    61  47  59 N8        29.88S
6HR MIN TEMP:  60; 6HR MAX TEMP:  65; 6HR PCP:  0.01;

INDIANAPOLIS   PTCLDY    61  44  53 NW16      29.90
6HR MIN TEMP:  53; 6HR MAX TEMP:  63;


$$
MIZ043>046-050>051-056>058-064>065-071>073-077>080-060100-
SOUTHWEST LOWER MICHIGAN

CITY           SKY/WX    TMP DP  RH WIND       PRES   REMARKS
BATTLE CREEK   PTCLDY    61  44  53 NW13G21   29.91R
6HR MIN TEMP:  61; 6HR MAX TEMP:  67;

BENTON HARBOR  CLEAR     48  38  68 VRB7      29.97S
6HR MIN TEMP:  46; 6HR MAX TEMP:  50;

COLDWATER*     MOCLDY    61  40  46 N7        29.89S
6HR MIN TEMP:  61; 6HR MAX TEMP:  66;

HILLSDALE*     CLEAR     61  35  37 N6        29.89R
6HR MIN TEMP:  61; 6HR MAX TEMP:  64;

HOLLAND        CLEAR    N/A N/A N/A NW8       29.95S
GRAND RAPIDS   MOCLDY    64  41  42 NW16      29.90S
6HR MIN TEMP:  64; 6HR MAX TEMP:  69;

KALAMAZOO      CLEAR     60  42  51 NW10      29.91S
6HR MIN TEMP:  60; 6HR MAX TEMP:  67;

STURGIS*       MOCLDY    60  44  56 NW8G17    29.90R
6HR MIN TEMP:  60; 6HR MAX TEMP:  66;

THREE RIVERS*  FAIR      59  43  55 NW12      29.92R

$$
OHZ001>008-015>018-024>025-060100-
NORTHWEST OHIO

CITY           SKY/WX    TMP DP  RH WIND       PRES   REMARKS
DEFIANCE       CLEAR     64  37  36 N9        29.87R
6HR MIN TEMP:  63; 6HR MAX TEMP:  68;

FINDLAY        PTCLDY    59  37  44 N9        29.85R
6HR MIN TEMP:  59; 6HR MAX TEMP:  66;

TOLEDO EXPRESS PTCLDY    63  38  39 N10       29.85S
6HR MIN TEMP:  62; 6HR MAX TEMP:  67;

TOLEDO METCALF MOCLDY    61  39  44 NE7       29.86R
6HR MIN TEMP:  61; 6HR MAX TEMP:  65;

LIMA           CLOUDY    58  44  60 N8        29.85S
6HR MIN TEMP:  58; 6HR MAX TEMP:  63;


$$
AND FOR LAKE MICHIGAN COASTAL AND OPEN LAKE BUOY OBSERVATIONS

STATION/POSITION TEMP    WIND        PRES    VSBY  WAVE
                 AIR SEA DIR/SP/G                  HT/PER
                 (F)     (DEG/KT/KT) (MB)    (MI)  (FT/S)
CALUMET HARBOR                       1014.9F
MICHIGAN CITY     48     340/  4/  5   N/A
BURNS HARBOR      48      70/  7/  8 1015.9F
SAINT JOSEPH      46     330/  6/  8 1015.6R
SOUTH LAKE BUOY   43 40   30/  4/  6 1014.9          2/ 5
4 MI NW BRIDGMAN  45 47                N/A           3/ 6

$$
&&




USA.gov is the U.S. government's official web portal to all federal, state and local government web resources and services.